Regional Weather Roundup
Issued by NWS Cleveland, OH

Home | Current Version | Previous Version | Graphics & Text | Print | Product List | Glossary On
Versions: 1 2 3 4 5 6 7 8 9 10 11 12 13 14 15 16 17 18 19 20 21 22 23 24 25 26 27 28 29 30 31 32 33 34 35 36 37 38 39 40 41 42 43 44 45 46 47 48 49 50
000
ASUS41 KCLE 200102
RWRCLE
OHIO REGIONAL WEATHER ROUNDUP
NATIONAL WEATHER SERVICE CLEVELAND, OH
900 PM EDT SAT AUG 19 2017

NOTE: "FAIR" INDICATES FEW OR NO CLOUDS BELOW 12,000 FEET WITH NO
SIGNIFICANT WEATHER AND/OR OBSTRUCTIONS TO VISIBILITY.

OHZ001>008-015>018-024>027-034-035-043-044-200200-
   NORTHWEST OHIO

CITY           SKY/WX    TMP DP  RH WIND       PRES   REMARKS
DEFIANCE       CLEAR     70  63  78 CALM      29.97R
FINDLAY        CLEAR     76  59  55 NW3       29.96S
TOLEDO EXPRESS CLEAR     68  64  87 CALM      29.96R
TOLEDO EXEC    CLEAR     73  60  63 CALM      29.97R
LIMA           CLEAR     66  62  87 CALM      29.98R
$$

OHZ009>014-019>023-028>033-038-089-200200-
   NORTHEAST OHIO

CITY           SKY/WX    TMP DP  RH WIND       PRES   REMARKS
CLE-HOPKINS    CLEAR     74  64  71 NE7       29.99R
CLE-LAKEFRONT  CLEAR     74  59  59 CALM      29.96R
CUY CO. ARPT   CLEAR     70  59  68 CALM      29.98R
LORAIN-ELYRIA  CLEAR     65  59  81 CALM      29.98R
ASHTABULA      CLEAR     65  62  90 CALM      29.99R
AKRON-CANTON   CLEAR     71  59  65 N7        29.98R
WOOSTER        CLEAR     69  63  81 N5        29.99R
MANSFIELD      CLEAR     70  60  70 CALM      29.99R
YOUNGSTOWN     CLEAR     67  60  78 NW5       29.99R
$$

OHZ042-051>053-060>062-070>072-077>081-200200-
  SOUTHWEST OHIO

CITY           SKY/WX    TMP DP  RH WIND       PRES   REMARKS
CINC-COVINGTON PTCLDY    79  68  69 CALM      29.96R
CINC-LUNKEN    CLEAR     75  69  81 SE3       29.95R
HAMILTON       CLEAR     73  70  90 CALM      29.96R
DAYTON         CLEAR     74  61  63 N6        29.99R
WRIGHT-PAT AFB NOT AVBL
DAYTON GENERAL CLEAR     77  65  66 N6        29.96R
WILMINGTON     PTCLDY    71  66  84 NE5       29.98R
$$

OHZ036-037-039>041-045>050-054>059-063>069-073>076-082>088-200200-
  CENTRAL AND SOUTHEAST OHIO

CITY           SKY/WX    TMP DP  RH WIND       PRES   REMARKS
COLUMBUS       PTCLDY    75  66  73 NE3       29.96R
OSU AIRPORT    CLEAR     72  62  71 N6        29.97R
BOLTON FIELD   CLEAR     74  62  64 N3        29.98R
RICKENBACK AFB CLOUDY    74  66  75 CALM      29.97R
NEWARK         CLEAR     68  66  93 CALM      29.97R FOG
MARION         CLEAR     70  58  65 CALM      29.98R
LANCASTER      PTCLDY    69  68  96 CALM      29.98R
ZANESVILLE     CLEAR     66  63  90 S3        29.98R
NEW PHILLY     NOT AVBL
$$




USA.gov is the U.S. government's official web portal to all federal, state and local government web resources and services.